EW0362 Weather Reports


time (UTC)temp
C
wind
direction
speed
KPH
gust
KPH
rain 1hr
cm
rain 24hr
cm
rain mn
cm
humidity
%
barometer
mb
20260504040705 1 257 0.0 0.0 0.00 0.03 0.00 85 1009.8
20260504040206 1 257 0.0 0.0 0.00 0.03 0.00 85 1009.7
20260504035704 1 257 0.0 0.0 0.00 0.03 0.03 84 1009.7
20260504035205 1 257 0.0 0.0 0.00 0.03 0.03 84 1009.7
20260504034705 2 257 0.0 0.0 0.00 0.03 0.03 84 1009.6
20260504033204 2 257 0.0 0.0 0.00 0.03 0.03 82 1009.6
20260504031705 2 257 0.0 0.0 0.00 0.03 0.03 82 1009.5
20260504030704 2 257 0.0 0.0 0.00 0.03 0.03 81 1009.6
20260504030205 2 257 0.0 0.0 0.00 0.03 0.03 80 1009.6
20260504025205 3 257 0.0 0.0 0.00 0.03 0.03 79 1009.6
20260504024204 3 257 0.0 0.0 0.00 0.03 0.03 78 1009.5
20260504023705 3 257 0.0 0.0 0.00 0.03 0.03 78 1009.4
20260504022705 3 257 0.0 0.0 0.00 0.03 0.03 76 1009.5
20260504022206 3 257 0.0 0.0 0.00 0.03 0.03 76 1009.4
20260504014204 5 257 0.0 0.0 0.00 0.03 0.03 69 1009.1
20260504013705 5 257 0.0 0.0 0.00 0.03 0.03 68 1009.1
20260504012706 6 257 0.0 0.0 0.00 0.03 0.03 67 1009.0
20260504011705 6 257 0.0 0.0 0.00 0.03 0.03 65 1009.0
20260504010705 6 257 0.0 0.0 0.00 0.03 0.03 65 1008.8
20260504010204 7 257 0.0 0.0 0.00 0.03 0.03 62 1008.8
20260504005704 7 257 0.0 0.0 0.00 0.03 0.03 62 1008.7
20260504004704 7 257 0.0 0.0 0.00 0.03 0.03 60 1008.6
20260504004205 7 257 0.0 0.0 0.00 0.03 0.03 60 1008.5
20260504003705 8 257 0.0 0.0 0.00 0.03 0.03 59 1008.4
20260504003204 8 257 0.0 0.0 0.00 0.03 0.03 60 1008.4
20260504001705 8 257 0.0 0.0 0.00 0.03 0.03 56 1008.2
20260504001205 9 257 0.0 0.0 0.00 0.03 0.03 53 1008.2
20260504000205 9 257 0.0 0.0 0.00 0.03 0.03 53 1008.1
20260503235205 10 257 0.0 0.0 0.00 0.03 0.03 51 1007.9
20260503234205 10 258 3.2 4.8 0.00 0.03 0.03 50 1007.8
20260503233205 10 277 1.6 4.8 0.00 0.03 0.03 49 1007.7
20260503232205 10 293 1.6 8.0 0.00 0.03 0.03 50 1007.6
20260503231704 10 282 1.6 4.8 0.00 0.03 0.03 48 1007.5
20260503231205 11 264 3.2 12.9 0.00 0.03 0.03 47 1007.5
20260503230204 11 280 3.2 11.3 0.00 0.03 0.03 46 1007.3
20260503225705 11 252 3.2 4.8 0.00 0.03 0.03 46 1007.3
20260503224704 11 285 3.2 14.5 0.00 0.03 0.03 45 1007.3
20260503223706 11 294 3.2 14.5 0.00 0.03 0.03 44 1007.1
20260503221705 11 350 4.8 16.1 0.00 0.03 0.03 44 1006.8
20260503221205 11 274 4.8 11.3 0.00 0.03 0.03 45 1006.8
20260503220705 11 212 3.2 8.0 0.00 0.03 0.03 46 1006.8
20260503220205 11 287 3.2 11.3 0.00 0.03 0.03 45 1006.7
20260503215704 11 268 4.8 12.9 0.00 0.05 0.03 46 1006.7
20260503215205 11 268 4.8 9.7 0.00 0.05 0.03 44 1006.6
20260503214704 11 280 4.8 12.9 0.00 0.05 0.03 44 1006.7
20260503213204 11 265 4.8 8.0 0.00 0.05 0.03 46 1006.5
20260503212704 11 262 4.8 14.5 0.00 0.08 0.03 44 1006.4
20260503205204 11 268 3.2 11.3 0.00 0.10 0.03 44 1006.1
20260503204204 12 309 8.0 16.1 0.00 0.10 0.03 43 1006.0
20260503203705 12 264 4.8 20.9 0.00 0.10 0.03 43 1005.9
20260503203204 12 256 3.2 14.5 0.00 0.10 0.03 43 1005.7
20260503202204 12 290 8.0 19.3 0.00 0.10 0.03 42 1005.6
20260503201704 12 292 4.8 16.1 0.00 0.10 0.03 42 1005.6
20260503201205 12 293 3.2 11.3 0.00 0.10 0.03 44 1005.6
20260503200204 12 277 8.0 16.1 0.00 0.10 0.03 43 1005.6
20260503195705 12 352 3.2 19.3 0.00 0.10 0.03 46 1005.7
20260503195204 12 274 4.8 12.9 0.00 0.10 0.03 46 1005.6
20260503194204 12 296 4.8 9.7 0.00 0.10 0.03 47 1005.6
20260503193705 12 329 6.4 14.5 0.00 0.10 0.03 46 1005.6
20260503192704 12 330 6.4 19.3 0.00 0.10 0.03 47 1005.7
20260503191704 12 324 3.2 12.9 0.00 0.10 0.03 48 1005.8
20260503190704 12 283 3.2 11.3 0.00 0.10 0.03 50 1005.7
20260503190205 12 274 4.8 9.7 0.00 0.10 0.03 49 1005.7
20260503185704 12 293 3.2 14.5 0.00 0.10 0.03 48 1005.7
20260503184705 12 345 8.0 14.5 0.00 0.10 0.03 47 1005.7
20260503184204 12 277 6.4 12.9 0.00 0.10 0.03 50 1005.7
20260503181204 11 285 1.6 14.5 0.00 0.10 0.03 52 1005.8
20260503180204 11 306 8.0 19.3 0.00 0.10 0.03 50 1006.0
20260503175206 11 273 6.4 14.5 0.00 0.10 0.03 52 1006.0
20260503174704 11 268 9.7 22.5 0.00 0.10 0.03 53 1005.9
20260503174204 11 22 3.2 12.9 0.00 0.10 0.03 55 1005.9
20260503173705 11 268 11.3 20.9 0.00 0.10 0.03 54 1005.9
20260503172705 11 355 8.0 19.3 0.00 0.10 0.03 52 1006.0
20260503172204 11 271 6.4 19.3 0.00 0.10 0.03 57 1005.9
20260503171704 11 4 9.7 22.5 0.00 0.10 0.03 56 1005.8
20260503170205 11 322 9.7 19.3 0.00 0.10 0.03 57 1005.8
20260503160205 10 301 8.0 16.1 0.00 0.10 0.03 65 1006.0
20260503120204 6 0 1.6 4.8 0.00 0.15 0.00 89 1007.0
20260503110204 5 295 1.6 4.8 0.00 0.25 0.00 90 1006.9
20260503090204 5 307 0.0 4.8 0.00 0.28 0.00 92 1007.3
20260503080204 5 58 0.0 3.2 0.00 0.28 0.00 93 1008.0
20260503072204 6 51 0.0 0.0 0.00 0.28 0.00 94 1008.3
20260503071704 6 51 0.0 0.0 0.00 0.28 0.00 94 1008.4
20260503070704 6 51 0.0 0.0 0.00 0.28 0.00 95 1008.4
20260503060203 6 51 0.0 0.0 0.00 0.28 0.00 94 1009.4
20260503054204 6 51 0.0 0.0 0.00 0.28 0.00 93 1009.2
20260503053703 6 51 0.0 0.0 0.00 0.28 0.00 93 1009.4
20260503052703 6 51 0.0 0.0 0.00 0.28 0.00 93 1009.6
20260503052204 6 51 0.0 0.0 0.00 0.28 0.00 93 1009.5
20260503044703 7 330 0.0 0.0 0.00 0.28 0.00 93 1010.0
20260503044204 7 330 0.0 1.6 0.00 0.28 0.00 93 1010.2
20260503043204 7 43 0.0 4.8 0.00 0.28 0.00 93 1010.2
20260503042704 7 11 3.2 4.8 0.00 0.28 0.00 95 1010.2
20260503042204 7 17 1.6 4.8 0.00 0.28 0.00 95 1010.3